QPF
0.00 0.00 0.00 0.01 0.01 0.01 0.01 0.01 0.01 0.01 0.03 0.05 0.08 0.12 0.16 0.22 0.25 0.27 0.26 0.28 0.28 0.27 0.25 0.22 0.21 0.20 0.16 0.12 0.09 0.06 0.04 0.03 0.01 0.02 0.02 0.01 0.00 0.00 0.00 0.00 0.00 0.00 0.00
0.00 0.00 0.00 0.00 0.01 0.01 0.01 0.01 0.00 0.00 0.01 0.02 0.03 0.05 0.09 0.14 0.15 0.18 0.21 0.23 0.25 0.28 0.27 0.27 0.29 0.29 0.24 0.20 0.14 0.09 0.07 0.06 0.03 0.05 0.06 0.05 0.02 0.01 0.00 0.00 0.00 0.00 0.00
0.01 0.01 0.00 0.00 0.00 0.00 0.00 0.01 0.00 0.00 0.01 0.01 0.02 0.04 0.05 0.07 0.08 0.11 0.14 0.16 0.17 0.19 0.21 0.26 0.31 0.34 0.29 0.24 0.20 0.14 0.12 0.09 0.06 0.04 0.07 0.07 0.05 0.05 0.01 0.00 0.00 0.00 0.00
0.01 0.01 0.01 0.01 0.01 0.01 0.02 0.01 0.01 0.01 0.01 0.01 0.01 0.02 0.03 0.03 0.04 0.06 0.10 0.12 0.12 0.14 0.18 0.23 0.26 0.28 0.28 0.25 0.22 0.16 0.14 0.13 0.11 0.08 0.06 0.05 0.06 0.08 0.06 0.02 0.01 0.00 0.00
0.01 0.01 0.02 0.02 0.03 0.04 0.02 0.02 0.02 0.01 0.01 0.01 0.01 0.02 0.02 0.02 0.02 0.03 0.05 0.08 0.10 0.12 0.16 0.18 0.19 0.19 0.20 0.20 0.22 0.18 0.15 0.13 0.13 0.11 0.09 0.08 0.07 0.06 0.08 0.07 0.04 0.02 0.01
0.01 0.03 0.04 0.05 0.06 0.04 0.03 0.04 0.03 0.03 0.02 0.02 0.02 0.02 0.02 0.02 0.02 0.03 0.04 0.05 0.07 0.08 0.09 0.11 0.14 0.16 0.19 0.19 0.19 0.16 0.13 0.12 0.13 0.13 0.12 0.11 0.10 0.08 0.09 0.09 0.07 0.06 0.03
0.02 0.03 0.04 0.04 0.06 0.06 0.06 0.07 0.06 0.05 0.05 0.04 0.03 0.03 0.03 0.03 0.03 0.04 0.06 0.06 0.07 0.06 0.07 0.07 0.09 0.10 0.12 0.14 0.16 0.16 0.14 0.14 0.15 0.17 0.16 0.15 0.13 0.10 0.09 0.09 0.09 0.08 0.05
0.02 0.03 0.03 0.04 0.07 0.09 0.08 0.09 0.14 0.11 0.08 0.08 0.05 0.04 0.04 0.05 0.07 0.08 0.08 0.07 0.08 0.09 0.08 0.07 0.07 0.06 0.07 0.10 0.12 0.13 0.15 0.16 0.16 0.16 0.16 0.17 0.16 0.14 0.10 0.09 0.10 0.09 0.08
0.02 0.04 0.05 0.07 0.13 0.16 0.13 0.12 0.16 0.15 0.12 0.12 0.09 0.07 0.06 0.06 0.06 0.08 0.09 0.08 0.07 0.07 0.06 0.07 0.06 0.06 0.06 0.07 0.09 0.11 0.12 0.13 0.13 0.14 0.14 0.14 0.14 0.14 0.14 0.13 0.12 0.11 0.09
0.03 0.04 0.05 0.11 0.17 0.23 0.18 0.14 0.13 0.14 0.12 0.11 0.10 0.08 0.06 0.06 0.05 0.05 0.05 0.06 0.06 0.06 0.06 0.06 0.05 0.04 0.04 0.04 0.06 0.09 0.15 0.18 0.18 0.16 0.15 0.15 0.13 0.13 0.13 0.13 0.12 0.12 0.10
0.05 0.06 0.05 0.09 0.14 0.17 0.18 0.13 0.13 0.17 0.17 0.15 0.13 0.10 0.07 0.06 0.04 0.05 0.05 0.04 0.04 0.04 0.04 0.04 0.04 0.03 0.03 0.04 0.05 0.06 0.09 0.15 0.21 0.21 0.20 0.19 0.17 0.16 0.15 0.14 0.12 0.10 0.08
0.02 0.03 0.04 0.07 0.08 0.09 0.12 0.11 0.10 0.13 0.15 0.15 0.15 0.11 0.07 0.06 0.07 0.06 0.03 0.03 0.03 0.03 0.02 0.03 0.02 0.03 0.03 0.04 0.07 0.07 0.08 0.11 0.13 0.14 0.15 0.17 0.19 0.20 0.18 0.15 0.13 0.11 0.09
0.02 0.02 0.02 0.05 0.06 0.06 0.06 0.07 0.07 0.07 0.09 0.09 0.08 0.08 0.07 0.06 0.04 0.03 0.02 0.03 0.03 0.02 0.02 0.03 0.04 0.04 0.05 0.07 0.08 0.09 0.11 0.11 0.10 0.10 0.11 0.12 0.12 0.13 0.13 0.12 0.10 0.09 0.08
0.01 0.02 0.02 0.03 0.05 0.05 0.06 0.05 0.04 0.04 0.03 0.04 0.03 0.03 0.04 0.04 0.03 0.02 0.03 0.02 0.02 0.02 0.03 0.02 0.03 0.03 0.03 0.04 0.05 0.08 0.10 0.11 0.13 0.12 0.11 0.11 0.12 0.12 0.12 0.11 0.09 0.08 0.07
0.01 0.01 0.01 0.02 0.02 0.03 0.03 0.04 0.04 0.02 0.02 0.02 0.01 0.01 0.01 0.01 0.01 0.00 0.01 0.01 0.02 0.02 0.01 0.02 0.02 0.02 0.02 0.02 0.03 0.04 0.07 0.09 0.09 0.09 0.10 0.09 0.10 0.10 0.11 0.11 0.12 0.10 0.08
0.00 0.00 0.00 0.01 0.01 0.01 0.01 0.01 0.01 0.00 0.00 0.00 0.00 0.00 0.00 0.00 0.00 0.00 0.00 0.00 0.01 0.01 0.00 0.01 0.01 0.02 0.02 0.02 0.03 0.04 0.05 0.06 0.07 0.08 0.08 0.08 0.08 0.07 0.06 0.06 0.07 0.08 0.08
0.00 0.00 0.00 0.00 0.00 0.00 0.00 0.00 0.00 0.00 0.00 0.00 0.00 0.00 0.00 0.00 0.00 0.00 0.00 0.00 0.00 0.00 0.00 0.00 0.00 0.01 0.02 0.03 0.04 0.05 0.05 0.05 0.05 0.06 0.07 0.08 0.07 0.08 0.06 0.04 0.04 0.03 0.04
0.00 0.00 0.00 0.00 0.00 0.00 0.00 0.00 0.00 0.00 0.00 0.00 0.00 0.00 0.00 0.00 0.00 0.00 0.00 0.00 0.00 0.00 0.00 0.00 0.00 0.01 0.02 0.03 0.04 0.05 0.05 0.05 0.06 0.06 0.07 0.10 0.09 0.09 0.10 0.07 0.07 0.04 0.02
0.00 0.00 0.00 0.00 0.00 0.00 0.00 0.00 0.00 0.00 0.00 0.00 0.00 0.00 0.00 0.00 0.00 0.00 0.00 0.00 0.00 0.00 0.00 0.00 0.00 0.00 0.01 0.02 0.03 0.04 0.04 0.05 0.07 0.07 0.07 0.08 0.08 0.08 0.10 0.11 0.10 0.06 0.03
0.00 0.00 0.00 0.00 0.00 0.00 0.00 0.00 0.00 0.00 0.00 0.00 0.00 0.00 0.00 0.00 0.00 0.00 0.00 0.00 0.00 0.00 0.00 0.00 0.00 0.00 0.00 0.01 0.02 0.04 0.03 0.03 0.04 0.05 0.05 0.07 0.08 0.05 0.07 0.09 0.12 0.10 0.05
0.00 0.00 0.00 0.00 0.00 0.00 0.00 0.00 0.00 0.00 0.00 0.00 0.00 0.00 0.00 0.00 0.00 0.00 0.00 0.00 0.00 0.00 0.00 0.00 0.00 0.00 0.00 0.01 0.01 0.03 0.02 0.03 0.04 0.03 0.03 0.04 0.04 0.03 0.05 0.08 0.09 0.10 0.06
0.00 0.00 0.00 0.00 0.00 0.00 0.00 0.00 0.00 0.00 0.00 0.00 0.00 0.00 0.00 0.00 0.00 0.00 0.00 0.00 0.00 0.00 0.00 0.00 0.00 0.00 0.00 0.01 0.01 0.02 0.02 0.01 0.02 0.02 0.02 0.02 0.03 0.02 0.03 0.04 0.06 0.06 0.05
0.00 0.00 0.00 0.00 0.00 0.00 0.00 0.00 0.00 0.00 0.00 0.00 0.00 0.00 0.00 0.00 0.00 0.00 0.00 0.00 0.00 0.00 0.00 0.00 0.00 0.00 0.00 0.01 0.01 0.01 0.01 0.01 0.02 0.02 0.02 0.02 0.03 0.03 0.03 0.04 0.06 0.05 0.05
0.00 0.00 0.00 0.00 0.00 0.00 0.00 0.00 0.00 0.00 0.00 0.00 0.00 0.00 0.00 0.00 0.00 0.00 0.00 0.00 0.00 0.00 0.00 0.00 0.00 0.00 0.00 0.01 0.01 0.01 0.01 0.01 0.02 0.02 0.02 0.03 0.03 0.03 0.03 0.03 0.03 0.04 0.05
0.00 0.00 0.00 0.00 0.00 0.00 0.00 0.00 0.00 0.00 0.00 0.00 0.00 0.00 0.00 0.00 0.00 0.00 0.00 0.00 0.00 0.00 0.00 0.00 0.00 0.00 0.00 0.00 0.00 0.00 0.00 0.01 0.01 0.01 0.01 0.01 0.01 0.01 0.02 0.02 0.03 0.04 0.05
0.00 0.00 0.00 0.00 0.00 0.00 0.00 0.00 0.00 0.00 0.00 0.00 0.00 0.00 0.00 0.00 0.00 0.00 0.00 0.00 0.00 0.00 0.00 0.00 0.00 0.00 0.00 0.00 0.00 0.00 0.00 0.00 0.00 0.01 0.00 0.00 0.00 0.01 0.01 0.01 0.02 0.02 0.02
MSLP
1020.08 1019.60 1019.19 1018.82 1018.43 1018.01 1017.53 1017.00 1016.44 1015.89 1015.39 1014.98 1014.67 1014.47 1014.35 1014.30 1014.28 1014.27 1014.24 1014.20 1014.16 1014.15 1014.18 1014.29 1014.48 1014.75 1015.08 1015.43 1015.76 1016.04 1016.23 1016.34 1016.35 1016.30 1016.21 1016.11 1016.03 1015.99 1016.00 1016.05 1016.13 1016.23 1016.35
1019.98 1019.47 1019.02 1018.59 1018.16 1017.70 1017.19 1016.65 1016.11 1015.59 1015.14 1014.78 1014.51 1014.33 1014.21 1014.13 1014.06 1013.97 1013.86 1013.74 1013.64 1013.59 1013.62 1013.75 1013.99 1014.32 1014.71 1015.12 1015.51 1015.83 1016.07 1016.20 1016.24 1016.21 1016.15 1016.07 1016.02 1015.99 1015.98 1016.00 1016.02 1016.05 1016.09
1019.96 1019.42 1018.93 1018.46 1017.97 1017.47 1016.94 1016.40 1015.87 1015.38 1014.97 1014.64 1014.39 1014.21 1014.08 1013.95 1013.80 1013.63 1013.43 1013.24 1013.07 1012.98 1013.00 1013.14 1013.42 1013.79 1014.23 1014.69 1015.12 1015.47 1015.74 1015.90 1015.98 1016.00 1015.99 1015.98 1015.98 1015.99 1016.01 1016.03 1016.03 1016.02 1015.99
1020.02 1019.46 1018.94 1018.43 1017.90 1017.36 1016.81 1016.26 1015.74 1015.28 1014.88 1014.57 1014.33 1014.14 1013.97 1013.78 1013.57 1013.31 1013.04 1012.77 1012.55 1012.42 1012.42 1012.56 1012.84 1013.24 1013.69 1014.17 1014.61 1014.99 1015.27 1015.47 1015.60 1015.68 1015.75 1015.82 1015.91 1016.00 1016.08 1016.14 1016.15 1016.12 1016.04
1020.15 1019.59 1019.05 1018.50 1017.95 1017.38 1016.81 1016.25 1015.74 1015.28 1014.89 1014.59 1014.34 1014.12 1013.91 1013.67 1013.40 1013.08 1012.74 1012.41 1012.15 1011.99 1011.96 1012.09 1012.35 1012.73 1013.17 1013.63 1014.06 1014.43 1014.72 1014.95 1015.12 1015.28 1015.43 1015.61 1015.80 1016.00 1016.18 1016.30 1016.35 1016.32 1016.22
1020.32 1019.77 1019.23 1018.67 1018.10 1017.51 1016.93 1016.36 1015.84 1015.38 1014.99 1014.67 1014.41 1014.17 1013.92 1013.65 1013.33 1012.97 1012.59 1012.23 1011.94 1011.75 1011.70 1011.79 1012.02 1012.35 1012.75 1013.16 1013.55 1013.88 1014.17 1014.40 1014.62 1014.84 1015.08 1015.37 1015.67 1015.98 1016.26 1016.46 1016.57 1016.57 1016.47
1020.52 1019.99 1019.45 1018.90 1018.32 1017.73 1017.14 1016.56 1016.03 1015.56 1015.16 1014.83 1014.55 1014.28 1014.02 1013.72 1013.38 1013.01 1012.63 1012.26 1011.96 1011.75 1011.67 1011.72 1011.90 1012.16 1012.48 1012.82 1013.14 1013.42 1013.67 1013.91 1014.14 1014.42 1014.74 1015.11 1015.51 1015.93 1016.30 1016.59 1016.76 1016.80 1016.73
1020.72 1020.22 1019.70 1019.16 1018.59 1018.01 1017.41 1016.84 1016.30 1015.82 1015.40 1015.05 1014.75 1014.47 1014.19 1013.90 1013.57 1013.21 1012.84 1012.50 1012.20 1011.99 1011.88 1011.89 1011.99 1012.18 1012.41 1012.65 1012.89 1013.11 1013.31 1013.52 1013.76 1014.06 1014.42 1014.86 1015.33 1015.82 1016.27 1016.63 1016.87 1016.96 1016.92
1020.91 1020.43 1019.95 1019.43 1018.89 1018.33 1017.75 1017.18 1016.64 1016.15 1015.71 1015.35 1015.03 1014.74 1014.46 1014.17 1013.87 1013.54 1013.21 1012.90 1012.62 1012.42 1012.29 1012.25 1012.30 1012.40 1012.53 1012.68 1012.83 1012.97 1013.11 1013.29 1013.51 1013.80 1014.18 1014.63 1015.13 1015.66 1016.15 1016.56 1016.85 1016.99 1017.00
1021.06 1020.62 1020.17 1019.70 1019.19 1018.66 1018.11 1017.56 1017.03 1016.53 1016.09 1015.71 1015.38 1015.08 1014.81 1014.54 1014.26 1013.97 1013.69 1013.41 1013.17 1012.97 1012.84 1012.76 1012.75 1012.78 1012.83 1012.89 1012.95 1013.02 1013.10 1013.22 1013.40 1013.66 1014.00 1014.43 1014.93 1015.44 1015.94 1016.37 1016.69 1016.88 1016.94
1021.15 1020.75 1020.35 1019.93 1019.47 1018.99 1018.49 1017.97 1017.46 1016.98 1016.54 1016.14 1015.80 1015.50 1015.22 1014.97 1014.71 1014.47 1014.22 1013.98 1013.77 1013.59 1013.45 1013.35 1013.30 1013.27 1013.25 1013.24 1013.24 1013.24 1013.26 1013.31 1013.43 1013.63 1013.91 1014.28 1014.72 1015.19 1015.65 1016.07 1016.40 1016.62 1016.72
1021.18 1020.82 1020.46 1020.10 1019.71 1019.29 1018.84 1018.38 1017.91 1017.45 1017.02 1016.63 1016.28 1015.97 1015.69 1015.44 1015.20 1014.98 1014.76 1014.55 1014.36 1014.20 1014.06 1013.95 1013.87 1013.80 1013.74 1013.68 1013.63 1013.57 1013.53 1013.53 1013.58 1013.69 1013.89 1014.17 1014.52 1014.91 1015.31 1015.68 1016.00 1016.24 1016.40
1021.13 1020.81 1020.50 1020.19 1019.87 1019.52 1019.15 1018.75 1018.34 1017.92 1017.52 1017.14 1016.79 1016.48 1016.19 1015.94 1015.71 1015.49 1015.28 1015.09 1014.92 1014.77 1014.63 1014.52 1014.42 1014.33 1014.24 1014.15 1014.06 1013.96 1013.87 1013.81 1013.79 1013.82 1013.92 1014.09 1014.33 1014.63 1014.95 1015.27 1015.56 1015.81 1016.00
1021.02 1020.72 1020.45 1020.20 1019.94 1019.67 1019.37 1019.05 1018.71 1018.36 1018.00 1017.65 1017.31 1017.00 1016.71 1016.45 1016.21 1015.98 1015.78 1015.59 1015.43 1015.27 1015.14 1015.03 1014.92 1014.82 1014.72 1014.61 1014.49 1014.36 1014.24 1014.12 1014.03 1013.98 1013.98 1014.05 1014.18 1014.37 1014.60 1014.86 1015.12 1015.37 1015.59
1020.85 1020.58 1020.34 1020.13 1019.93 1019.72 1019.51 1019.27 1019.01 1018.73 1018.43 1018.12 1017.82 1017.52 1017.23 1016.96 1016.70 1016.47 1016.26 1016.06 1015.89 1015.73 1015.60 1015.48 1015.37 1015.26 1015.15 1015.03 1014.89 1014.74 1014.58 1014.41 1014.26 1014.14 1014.06 1014.04 1014.07 1014.17 1014.32 1014.52 1014.75 1014.99 1015.22
1020.68 1020.42 1020.19 1020.00 1019.84 1019.70 1019.55 1019.40 1019.22 1019.02 1018.79 1018.55 1018.28 1018.01 1017.73 1017.46 1017.20 1016.95 1016.73 1016.52 1016.33 1016.17 1016.02 1015.89 1015.77 1015.65 1015.53 1015.39 1015.24 1015.06 1014.87 1014.67 1014.48 1014.30 1014.16 1014.06 1014.03 1014.05 1014.15 1014.30 1014.49 1014.71 1014.95
1020.53 1020.27 1020.05 1019.87 1019.73 1019.63 1019.54 1019.46 1019.36 1019.24 1019.09 1018.91 1018.70 1018.46 1018.21 1017.95 1017.69 1017.44 1017.20 1016.98 1016.78 1016.60 1016.44 1016.29 1016.15 1016.01 1015.87 1015.71 1015.54 1015.34 1015.13 1014.90 1014.67 1014.46 1014.28 1014.14 1014.06 1014.04 1014.09 1014.21 1014.38 1014.59 1014.83
1020.43 1020.17 1019.94 1019.76 1019.63 1019.55 1019.50 1019.47 1019.45 1019.40 1019.33 1019.22 1019.07 1018.89 1018.67 1018.44 1018.19 1017.94 1017.70 1017.47 1017.26 1017.06 1016.87 1016.70 1016.54 1016.37 1016.20 1016.01 1015.81 1015.59 1015.36 1015.11 1014.87 1014.63 1014.43 1014.28 1014.18 1014.15 1014.19 1014.29 1014.45 1014.65 1014.88
1020.40 1020.13 1019.90 1019.71 1019.58 1019.51 1019.49 1019.50 1019.52 1019.54 1019.53 1019.49 1019.40 1019.27 1019.11 1018.91 1018.68 1018.45 1018.21 1017.98 1017.75 1017.54 1017.34 1017.14 1016.95 1016.75 1016.55 1016.33 1016.10 1015.85 1015.59 1015.33 1015.08 1014.85 1014.65 1014.50 1014.41 1014.38 1014.42 1014.53 1014.68 1014.87 1015.09
1020.41 1020.16 1019.92 1019.73 1019.60 1019.54 1019.53 1019.56 1019.62 1019.68 1019.73 1019.74 1019.71 1019.63 1019.51 1019.35 1019.15 1018.94 1018.72 1018.49 1018.27 1018.05 1017.83 1017.61 1017.39 1017.16 1016.93 1016.68 1016.42 1016.15 1015.87 1015.60 1015.35 1015.12 1014.93 1014.80 1014.73 1014.72 1014.78 1014.89 1015.05 1015.24 1015.45
1020.44 1020.21 1019.99 1019.81 1019.69 1019.62 1019.62 1019.67 1019.75 1019.84 1019.92 1019.97 1019.98 1019.95 1019.86 1019.74 1019.58 1019.39 1019.19 1018.99 1018.77 1018.55 1018.33 1018.11 1017.87 1017.62 1017.36 1017.09 1016.80 1016.51 1016.22 1015.94 1015.68 1015.47 1015.29 1015.18 1015.13 1015.15 1015.23 1015.35 1015.52 1015.71 1015.91
1020.43 1020.25 1020.07 1019.91 1019.80 1019.75 1019.76 1019.82 1019.91 1020.01 1020.11 1020.18 1020.21 1020.20 1020.15 1020.06 1019.93 1019.78 1019.61 1019.43 1019.23 1019.03 1018.83 1018.61 1018.37 1018.12 1017.85 1017.56 1017.26 1016.95 1016.65 1016.36 1016.10 1015.89 1015.73 1015.63 1015.59 1015.62 1015.72 1015.86 1016.03 1016.23 1016.43
1020.35 1020.23 1020.10 1019.99 1019.91 1019.88 1019.91 1019.97 1020.07 1020.17 1020.26 1020.34 1020.38 1020.38 1020.35 1020.28 1020.18 1020.06 1019.92 1019.77 1019.62 1019.45 1019.28 1019.08 1018.87 1018.63 1018.36 1018.08 1017.78 1017.46 1017.15 1016.86 1016.60 1016.38 1016.22 1016.12 1016.08 1016.12 1016.22 1016.36 1016.54 1016.74 1016.94
1020.16 1020.11 1020.04 1019.99 1019.96 1019.96 1020.00 1020.08 1020.17 1020.26 1020.35 1020.41 1020.45 1020.45 1020.43 1020.37 1020.30 1020.21 1020.11 1020.01 1019.90 1019.79 1019.66 1019.50 1019.33 1019.12 1018.89 1018.62 1018.33 1018.03 1017.72 1017.42 1017.15 1016.92 1016.74 1016.63 1016.58 1016.61 1016.69 1016.83 1017.01 1017.21 1017.41
1019.86 1019.87 1019.88 1019.88 1019.90 1019.94 1020.01 1020.09 1020.18 1020.26 1020.33 1020.38 1020.40 1020.40 1020.37 1020.33 1020.28 1020.22 1020.17 1020.12 1020.06 1020.00 1019.93 1019.84 1019.72 1019.56 1019.37 1019.14 1018.88 1018.60 1018.30 1018.00 1017.72 1017.48 1017.28 1017.14 1017.07 1017.07 1017.13 1017.25 1017.41 1017.61 1017.81
1019.47 1019.54 1019.60 1019.66 1019.73 1019.80 1019.89 1019.98 1020.07 1020.14 1020.19 1020.22 1020.22 1020.21 1020.18 1020.15 1020.12 1020.10 1020.08 1020.08 1020.09 1020.09 1020.08 1020.06 1020.00 1019.91 1019.77 1019.59 1019.37 1019.12 1018.84 1018.56 1018.28 1018.03 1017.81 1017.64 1017.54 1017.50 1017.53 1017.62 1017.76 1017.94 1018.14
Thickness
5693 5695 5696 5699 5701 5704 5707 5710 5713 5716 5719 5722 5725 5729 5733 5736 5739 5741 5742 5743 5743 5743 5743 5743 5743 5743 5742 5742 5743 5743 5742 5742 5746 5744 5743 5747 5750 5753 5751 5751 5752 5751 5751
5681 5683 5685 5688 5689 5691 5695 5699 5702 5706 5709 5711 5715 5719 5724 5728 5732 5735 5737 5738 5740 5740 5740 5740 5740 5739 5738 5738 5738 5738 5736 5737 5739 5737 5733 5732 5737 5742 5747 5747 5746 5749 5748
5667 5669 5671 5674 5677 5680 5683 5687 5690 5695 5699 5702 5706 5710 5715 5719 5723 5726 5730 5732 5735 5736 5737 5737 5737 5737 5736 5734 5733 5733 5730 5729 5732 5736 5732 5725 5724 5734 5741 5744 5744 5744 5745
5658 5658 5659 5662 5665 5669 5673 5676 5679 5683 5687 5691 5694 5698 5702 5706 5712 5717 5722 5726 5729 5731 5732 5732 5733 5732 5731 5730 5730 5730 5728 5725 5723 5726 5729 5730 5730 5724 5726 5733 5739 5741 5740
5648 5648 5650 5652 5656 5659 5661 5665 5668 5671 5674 5679 5683 5687 5692 5698 5704 5709 5713 5717 5721 5724 5726 5727 5728 5727 5727 5727 5726 5725 5724 5723 5721 5720 5721 5721 5721 5723 5720 5718 5725 5729 5733
5641 5641 5642 5645 5647 5650 5652 5655 5657 5660 5663 5667 5673 5677 5682 5688 5693 5699 5704 5708 5713 5716 5719 5721 5721 5722 5722 5723 5722 5721 5720 5719 5718 5718 5717 5716 5713 5713 5714 5712 5714 5717 5723
5635 5634 5635 5637 5639 5641 5644 5647 5649 5651 5654 5659 5663 5668 5673 5678 5684 5689 5694 5699 5704 5707 5710 5713 5714 5716 5716 5717 5717 5716 5716 5715 5714 5713 5713 5712 5711 5711 5708 5706 5707 5708 5713
5631 5630 5630 5632 5633 5635 5638 5640 5642 5644 5647 5651 5655 5660 5665 5670 5675 5680 5686 5690 5695 5699 5702 5705 5707 5708 5709 5710 5711 5711 5710 5710 5709 5709 5708 5706 5705 5705 5704 5702 5700 5698 5700
5628 5628 5628 5629 5630 5632 5634 5635 5638 5640 5642 5646 5650 5654 5658 5663 5667 5672 5677 5681 5686 5690 5693 5696 5698 5700 5701 5702 5703 5703 5704 5704 5704 5703 5702 5701 5700 5699 5698 5697 5695 5692 5690
5628 5628 5628 5627 5628 5630 5632 5633 5635 5636 5638 5641 5644 5648 5652 5656 5660 5664 5667 5672 5677 5681 5684 5688 5690 5691 5693 5694 5694 5695 5696 5696 5696 5696 5695 5694 5694 5692 5691 5690 5689 5687 5686
5628 5629 5629 5629 5629 5630 5631 5633 5633 5634 5635 5637 5640 5643 5647 5651 5655 5657 5660 5663 5667 5671 5675 5678 5681 5683 5684 5685 5686 5688 5688 5688 5688 5689 5688 5687 5687 5685 5684 5683 5681 5680 5680
5632 5631 5631 5630 5630 5631 5632 5632 5633 5633 5634 5635 5638 5640 5642 5645 5648 5650 5652 5656 5659 5663 5666 5669 5671 5673 5674 5675 5677 5678 5680 5680 5679 5679 5679 5679 5679 5678 5677 5676 5674 5674 5674
5635 5635 5634 5633 5633 5632 5633 5633 5633 5633 5634 5635 5636 5638 5639 5641 5642 5644 5646 5650 5652 5655 5658 5661 5662 5662 5664 5665 5667 5669 5670 5671 5670 5671 5671 5671 5671 5669 5668 5668 5667 5667 5668
5638 5637 5637 5637 5636 5636 5635 5635 5635 5634 5635 5635 5635 5636 5637 5637 5638 5639 5641 5643 5645 5647 5650 5652 5652 5654 5655 5656 5658 5660 5661 5662 5662 5663 5663 5664 5664 5663 5663 5662 5662 5661 5660
5642 5641 5641 5640 5640 5639 5639 5638 5637 5637 5636 5636 5635 5635 5636 5636 5637 5638 5638 5639 5640 5641 5642 5644 5645 5646 5647 5647 5648 5651 5652 5653 5653 5654 5655 5655 5655 5654 5655 5656 5656 5655 5654
5646 5646 5646 5645 5644 5644 5643 5641 5640 5639 5639 5637 5636 5635 5636 5636 5636 5635 5635 5635 5634 5635 5635 5636 5637 5637 5637 5636 5638 5641 5643 5644 5644 5644 5646 5646 5647 5646 5646 5647 5648 5649 5650
5652 5652 5651 5650 5649 5648 5647 5644 5642 5642 5641 5639 5637 5636 5636 5635 5634 5633 5632 5631 5630 5629 5629 5628 5628 5629 5627 5628 5630 5631 5635 5635 5635 5636 5637 5638 5638 5640 5641 5639 5639 5641 5641
5658 5657 5657 5656 5655 5654 5651 5649 5646 5645 5643 5640 5638 5636 5636 5634 5633 5631 5629 5628 5627 5625 5623 5622 5622 5622 5621 5621 5623 5624 5628 5627 5627 5628 5629 5630 5631 5632 5633 5635 5636 5637 5636
5664 5663 5662 5661 5660 5658 5656 5654 5651 5648 5644 5641 5639 5637 5636 5633 5631 5629 5627 5625 5623 5621 5620 5617 5616 5616 5616 5615 5616 5619 5621 5621 5620 5621 5621 5623 5625 5624 5626 5629 5629 5628 5628
5669 5667 5667 5666 5664 5661 5659 5657 5654 5650 5645 5642 5640 5638 5635 5632 5629 5627 5625 5623 5621 5619 5617 5614 5613 5611 5610 5608 5610 5613 5616 5615 5614 5614 5615 5614 5617 5617 5620 5624 5624 5623 5623
5672 5671 5670 5669 5666 5665 5663 5660 5657 5651 5647 5643 5640 5638 5635 5632 5628 5626 5624 5623 5620 5618 5616 5614 5611 5608 5605 5605 5604 5606 5610 5609 5609 5610 5610 5610 5610 5613 5615 5618 5620 5619 5621
5676 5674 5673 5671 5669 5667 5665 5662 5657 5653 5649 5645 5641 5638 5635 5633 5630 5626 5624 5622 5620 5618 5615 5613 5610 5607 5605 5601 5601 5601 5602 5604 5605 5605 5605 5605 5605 5608 5610 5613 5613 5614 5618
5680 5678 5676 5674 5673 5670 5667 5664 5659 5655 5651 5647 5643 5640 5637 5633 5630 5627 5625 5622 5619 5617 5614 5611 5609 5606 5605 5603 5601 5600 5600 5601 5603 5602 5600 5601 5602 5605 5607 5607 5609 5612 5615
5684 5681 5679 5677 5675 5673 5670 5667 5663 5658 5655 5650 5646 5643 5640 5637 5633 5628 5626 5623 5620 5617 5614 5611 5609 5608 5606 5604 5603 5604 5604 5602 5603 5603 5601 5601 5601 5603 5603 5605 5608 5611 5612
5687 5685 5683 5680 5678 5676 5673 5670 5666 5662 5659 5655 5650 5647 5642 5639 5635 5632 5626 5623 5618 5614 5612 5611 5610 5608 5607 5601 5598 5601 5604 5604 5604 5605 5605 5605 5605 5605 5605 5605 5606 5608 5609
5691 5688 5685 5682 5681 5679 5676 5673 5669 5666 5664 5660 5656 5651 5647 5643 5640 5637 5633 5623 5620 5615 5612 5609 5608 5608 5603 5602 5601 5601 5602 5603 5604 5607 5607 5605 5605 5604 5605 5606 5605 5606 5607